Weather in Kurakino

Russia / Republic of Mordovia     54°57′35″N   46°08′05″E
temp.,
°C
wind,
m/s
gust,
m/s
humid.,
%
clouds,
%
prec.,
mm/h
press.,
hPa
HPBL,
m
6 march, sat
sat600:00−9w479367 0.3 1010137
03:00−13w479533 0.3 1013134
06:00−15wnw349559 0.0 101435
09:00−13w238929 0.0 101596
12:00−9wsw23800 0.0 1016299
15:00−7wsw248510 0.0 1014640
18:00−12wsw129584 0.0 101421
21:00−13sw129883 0.1 101420
7 march, sun
sun700:00−14w229797 0.0 101220
03:00−15wsw229683 0.1 101221
06:00−17sw339727 0.0 101122
09:00−13sw589456 0.0 1010267
12:00−9ssw6118888 0.0 1007558
15:00−7ssw8148794 0.0 1003835
18:00−7ssw71493100 0.9 999958
21:00−5ssw91693100 2.0 996972
8 march, mon
mon800:00−4w91493100 0.8 994874
03:00−10wsw5138684 0.8 996309
06:00−12sw51185100 0.0 997249
09:00−9sw6138895 0.0 997560
12:00−6sw7118899 0.1 997860
15:00−5wsw698398 0.2 9971031
18:00−8w41285100 0.1 999364
21:00−9wnw6119299 0.1 1003485
9 march, tue
tue900:00−13wnw5109487 0.0 1005211
03:00−16wnw479782 0.1 1008106
06:00−19wnw349863 0.0 101151
09:00−17wnw369567 0.0 1013215
12:00−14wnw359275 0.0 1014322
15:00−14wnw469068 0.0 1015363
18:00−19wnw349516 0.0 101533
21:00−21nw33978 0.0 101828
10 march, wed
wed1000:00−22nw2310063 0.0 101830
03:00−23nw3310082 0.1 101945
06:00−25nw34100100 0.0 102168
09:00−23nnw4698100 0.1 1022241
12:00−21nw469485 0.0 1023321
15:00−20nw479174 0.0 1023445
18:00−24wnw349768 0.0 102444
21:00−25nw3310069 0.0 102520